Powrót do katalogu

LO-19

OSCAR 19

AktywnyKrótkofalarstwoSSO
NORAD 20442·PAYLOAD·🇦🇷 Argentina

Wystrzelony Jan 22, 1990 z Guiana Space Centre

Loading…

Następne Przeloty (najbliższe 24 godziny)

TLE

ŚwieżeSource: Space-Track

Epoka: Sep 14, 2026, 11:38 UTC

1 20442U 90005G   26257.48512804  .00000054  00000-0  36164-4 0  9993
2 20442  98.8823 281.7394 0010636 307.5219  52.4997 14.34143814915193

Śledź LO-19 w czasie rzeczywistym z AllMySat

Download on the App Store